カタログに戻る

STARLINK-35282

運用中通信SSO
NORAD 65658·PAYLOAD·🇺🇸 United States

打ち上げ Sep 19, 2025 から Vandenberg Space Force Base

Loading…

次のパス (今後24時間)

TLE

最新Source: CelesTrak SupGP

元期: Sep 14, 2026, 23:09 UTC

1 65658C 25211G   26257.96506944  .00052054  00000+0  16163-2 0  2577
2 65658  97.2843 298.2082 0001400  91.1985 157.0980 15.33404637    11

AllMySatでSTARLINK-35282をリアルタイム追跡

Download on the App Store